Погода в Хаттунях

Россия / Чеченская Республика     42°58′47″N   45°56′09″E
темп.,
°C
ветер,
м/с
пор.,
м/с
влажн.,
%
обл.,
%
осадки,
мм/ч
давл.,
гПа
погр.,
м
14 апреля, ср
ср1400:00+6юв11905 0.0 101811
03:00+6ю019013 0.0 101610
06:00+5юз119447 0.0 101731
09:00+9сз238298 0.1 1017699
12:00+8зсз3581100 0.3 1018751
15:00+8ююз2478100 1.6 1018497
18:00+8з1175100 0.2 101714
21:00+6ююз228191 0.2 101933
15 апреля, чт
чт1500:00+5ю22842 0.0 101816
03:00+5ююз228547 0.0 101923
06:00+5ююз22764 0.0 101926
09:00+12сз22550 0.0 1017788
12:00+15ссз33443 0.0 10161462
15:00+16ссз334384 0.0 10161702
18:00+13ссв1155100 0.0 1017113
21:00+9ю2262100 0.0 101818
16 апреля, пт
пт1600:00+9ю2265100 0.0 101715
03:00+8ю22695 0.0 101816
06:00+8ююв2268100 0.0 101821
09:00+14ссв224699 0.0 1018972
12:00+17ссв434449 0.1 10171665
15:00+17св434674 0.3 10161655
18:00+13св236287 0.3 1016112
21:00+11ю227184 0.5 101719
17 апреля, сб
сб1700:00+10ю227189 0.0 101823
03:00+9ю226772 0.0 101822
06:00+9юз1166100 0.0 102017
09:00+11сз337199 0.0 1021735
12:00+11сз2378100 0.2 1021789
15:00+11ссз1279100 0.3 1021613
18:00+10зсз1187100 0.1 102274
21:00+9ссв1191100 0.2 102274
18 апреля, вс
вс1800:00+9с1194100 0.1 102190
03:00+8с1193100 0.1 102167
06:00+8с1193100 0.0 1021120
09:00+11с227989 0.2 1019476
12:00+15с326694 0.0 10171027
15:00+13ссв117290 0.1 1017713
18:00+12ссв128499 0.1 1019155
21:00+9ююв119476 0.3 101931